Weather in Sadove

Ukraine / Kharkiv Region     48°49′41″N   36°34′53″E
temp.,
°C
wind,
m/s
gust,
m/s
humid.,
%
clouds,
%
prec.,
mm/h
press.,
hPa
HPBL,
m
14 june, mon
mon1400:00+16sse33894 0.3 101037
03:00+15sse33925 1.2 101143
06:00+16se349022 0.0 1011104
09:00+21se457590 0.0 1012526
12:00+24se4558100 0.0 10121529
15:00+25se335296 0.0 10132004
18:00+23ese2262100 0.0 101224
21:00+21ene3364100 0.0 101236
15 june, tue
tue1500:00+20ene3467100 0.0 101271
03:00+18ne357772 0.0 1012110
06:00+17ne37882 0.0 1012159
09:00+23ne34680 0.0 1012464
12:00+25ne22543 0.8 10111535
15:00+26ne225062 0.9 10102063
18:00+25ene2261100 0.0 1009287
21:00+20e227592 0.1 100913
16 june, wed
wed1600:00+18s2384100 0.5 101031
03:00+17sw118999 0.8 101011
06:00+18ne118421 0.2 101039
09:00+22ene33714 0.6 1010408
12:00+26e335731 1.0 10111384
15:00+26ne446199 1.1 1010805
18:00+24e4673100 0.9 1010384
21:00+19ese41090100 3.2 1012304
17 june, thu
thu1700:00+17ene4108854 0.6 1012239
03:00+16ne49913 0.6 1012193
06:00+17ne410926 0.0 1013324
09:00+22ene6978100 1.2 1014624
12:00+26ene786743 0.5 10151233
15:00+25ene897299 3.9 10151148
18:00+23ne71283100 2.9 1015854
21:00+20ene81589100 6.8 1016721
18 june, fri
fri1800:00+18ene71487100 0.9 1017452
03:00+17ne61281100 1.0 1018452
06:00+17ene71482100 0.0 1019590
09:00+19e8137633 0.0 1020815
12:00+22e896769 0.0 10211027
15:00+22e586813 0.0 10211059
18:00+23ene79674 0.0 10211145
21:00+18ene512780 0.0 1022310